Погода в Донском

Россия / Калининградская область     54°27′08″N   21°44′42″E
темп.,
°C
ветер,
м/с
пор.,
м/с
влажн.,
%
обл.,
%
осадки,
мм/ч
давл.,
гПа
погр.,
м
21 апреля, ср
ср2123:00+7зсз227721 0.0 101135
02:00+5з34755 0.0 101163
05:00+4з23795 0.0 101048
08:00+8зсз35655 0.0 1010247
11:00+13зсз35497 0.0 1009980
14:00+15з56455 0.0 10081981
17:00+13з46520 0.0 10081194
20:00+8зсз347597 0.0 100867
22 апреля, чт
чт2223:00+7зюз268598 0.8 1008242
02:00+6з4777100 0.8 1008667
05:00+4юз410935 1.2 1008634
08:00+4юз697810 1.2 1008795
11:00+6зюз71067100 0.0 10091339
14:00+7юз81365100 0.3 10091783
17:00+6з6126573 0.7 10091681
20:00+3зюз5107474 0.8 1010551
23 апреля, пт
пт2323:00+2юз6128193 0.1 1010806
02:00+1зюз61196100 0.1 1010579
05:00+2зюз51197100 0.8 1010659
08:00+4з698084 1.3 10111108
11:00+4зсз6979100 1.1 10131241
14:00+5зсз71078100 2.2 10151258
17:00+4зсз71176100 0.8 10161341
20:00+2зсз6119275 0.9 1017905
24 апреля, сб
сб2423:00+2зсз5118890 0.1 1017730
02:00+1зсз5119597 0.3 1017697
05:00+2зсз51284100 0.1 1017700
08:00+4зсз487470 0.3 1017862
11:00+6сз695198 0.6 10172119
14:00+6сз794996 0.8 10172162
17:00+5сз710557 0.2 10171904
20:00+1зсз6118080 0.3 1018774
25 апреля, вс
вс2523:00+2зсз61397100 0.5 1017782
02:00+1зсз61295100 1.0 1017952
05:00+1зсз61294100 0.4 10171031
08:00+3сз7127899 0.8 10171449
11:00+5сз9136999 0.4 10171689
14:00+2зсз81395100 1.6 1017908
17:00+4сз7108276 0.8 10181186
20:00+2зсз51088100 1.1 1018841